User: anonymous   Login
Location: Unspecified
(0.0000°N, 0.0000°E)
Time: 00:13:22
(UTC+00:00)
Language:

YAOGAN 2 - Orbit

View from above orbital plane
View from above orbital plane
View from above satellite
View from above satellite

Ground track
Ground track

The orbit data is extracted from the following two-line orbital elements,

1 31490U 07019A   18112.62231941 +.00000108 +00000-0 +22777-4 0  9993
2 31490 098.0638 228.5989 0022105 113.8162 246.5368 14.76848391587643
Epoch (UTC): 22 April 2018 14:56:08
Eccentricity: 0.0022105
inclination: 98.0638°
perigee height: 624 km
apogee height: 655 km
right ascension of ascending node: 228.5989°
argument of perigee: 113.8162°
revolutions per day: 14.76848391
mean anomaly at epoch: 246.5368°
orbit number at epoch: 58764

The dashed part of the orbit path shows where the satellite is in the earth's shadow,  

DLR